Showing default

NOAA 5, 9057

Orbit data source: Space-Track

NOAA 5, 9057 is a payload satellite owned by NOAA (US) in SSO that was launched on Thu, 29 Jul 1976 UTC via a DELTA 2310 launch vehicle from the Air Force Western Test Range (AFWTR). Payload-class satellites include a variety of spacecraft equipped with specific instruments for various scientific and technological missions. These include communications satellites like Starlink; space stations such as the ISS; scientific satellites like the Hubble; Earth observation satellites from companies like Planet Labs, Umbra, and HawkEye 360; GPS; miniature CubeSats for education and research; and military/defense satellites.

Loading next visibility...
Identifier
9057, 1976-077A
Orbit
SSO
Country
Flag of USUS
Related business
Manufacturer
RCA/East Windsor
Mission
Non-operational spacecraft
Bus & Motor
TIROS M, Unknown motor
Mass
340 kg wet, 340 kg dry
Launch date (UTC)
1976-07-29 (50 years ago)
Launch vehicle
DELTA 2310
Launch site
Air Force Western Test Range (AFWTR)
Object type
Payload
Rocket body
Debris
Shape & HBR
Unknown
Radar Cross Section
Large (>1 m²)

Expand to show TLE details & history
Last TLE update: 1 day ago

TLE from 1 day ago
0 NOAA 5
1 09057U 76077A   26033.53420620 -.00000045  00000-0  68607-5 0  9996
2 09057 102.2901  18.8675 0009615 226.1824 249.2681 12.37827129237814
Epoch: 2026-02-02T12:49Z
TLE epoch observation values (Epoch: 2026-02-02T12:49:15.415Z)
Latitude
62.09724°
Longitude
-102.0076°
Altitude
1,528.958 km
Speed
7.106 km/s
True Right ascension
14h 52m 08s
True Declination
61° 58' 07"
Sunlit
Object was in daylight at epoch
Visualization orbit readout
Latitude
Unknown
Longitude
Unknown
Altitude
Unknown
Speed
Unknown
Apparent Right ascension
Unknown
Apparent Declination
Unknown
Sunlit
N/A
Visualization observer readout
Local Sidereal Time
14:57:44
Azimuth
Unknown
Elevation
Unknown
Doppler factor
Unknown
Orbital elements
Apogee altitude
1,521.01 km
Perigee altitude
1,505.835 km
Semi-major axis
7,891.56 km
Eccentricity
0.00096
Inclination
102.2901°
RAAN
18.8675°
Arg. of periapsis
226.1824°
True anomaly
249.1651°
Mean anomaly
249.2681°
Eccentric anomaly
249.21659°
Mean motion
3.09599 °/min
Orbital period
116.28 mins
BSTAR
0.0000068607
Loading maneuver chart data...
Computing Atmospheric mass density...
Loading historical data...
Loading historical data...
Loading historical data...
Loading historical data...
Loading historical data...
Loading historical data...
Loading historical data...

Documentation

Showing up to 5 results
|